YZ-1 R/B, 43625

Orbit data source: Space-Track

YZ-1 R/B, 43625 is space debris originally from a launch on Wed, 19 Sep 2018 UTC launched from the Xichang Space Center, China (XSC). Debris objects in space refer to the collection of defunct objects orbiting the Earth. Examples of debris include non-operational satellites, rocket bodies, and fragments generated from explosions, collisions, or faulty payload assembly.

Loading next visibility...
Identifier
43625, 2018-072D
Orbit
Active
Country
Flag of CNCN / PRC
Related business
Manufacturer
CALT
Mission
Spacecraft
Bus & Motor
YZ-1, Unknown motor
Mass
~2,075 kg wet, ~2,075 kg dry
Launch date (UTC)
2018-09-19 (8 years ago)
Launch vehicle
Unknown
Launch site
Xichang Space Center, China (XSC)
Object type
Payload
Rocket body
Debris
Shape & HBR
Double Cone, 2.0 m
Radar Cross Section
5.890 m², Large (>1 m²)

Expand to show TLE details & history
Last TLE update: 1 day ago

TLE from 1 day ago
0 YZ-1 R/B
1 43625U 18072D   26124.64352455 -.00000024  00000-0  00000-0 0  9994
2 43625  56.3890  73.0175 0107726  64.9068 296.1665  1.77481708 49418
Epoch: 2026-05-04T15:26Z
TLE epoch observation values (Epoch: 2026-05-04T15:26:40.521Z)
Latitude
0.00007°
Longitude
-21.19812°
Altitude
22,303.533 km
Speed
3.737 km/s
True Right ascension
04h 52m 00s
True Declination
0° 00' 00"
Sunlit
Object was in daylight at epoch
Visualization orbit readout
Latitude
Unknown
Longitude
Unknown
Altitude
Unknown
Speed
Unknown
Apparent Right ascension
Unknown
Apparent Declination
Unknown
Sunlit
N/A
Visualization observer readout
Local Sidereal Time
05:58:32
Azimuth
Unknown
Elevation
Unknown
Doppler factor
Unknown
Orbital elements
Apogee altitude
22,748.18 km
Perigee altitude
22,127.336 km
Semi-major axis
28,815.895 km
Eccentricity
0.01077
Inclination
56.389°
RAAN
73.0175°
Arg. of periapsis
64.9068°
True anomaly
295.05202°
Mean anomaly
296.1665°
Eccentric anomaly
295.60991°
Mean motion
0.44371 °/min
Orbital period
811.35 mins
BSTAR
0
Loading maneuver chart data...
Computing Atmospheric mass density...
Loading historical data...
Loading historical data...
Loading historical data...
Loading historical data...
Loading historical data...
Loading historical data...
Loading historical data...
Other satellites on launch #72 in the year 2018 (2018-09-19 UTC)

Documentation

Showing up to 5 results
|